Starlink 11207

operational
NORAD ID: 60933 Int'l Des: 2024-155 Owner: SPXS Country: US Constellation: starlink
LEOCIRCULAR

Starlink 11207について

説明を読み込み中...

リアルタイム位置

3D地球を読み込み中...

次回通過

高度履歴

Altitude vs Time

uPlot chart will show altitude changes over time

軌道要素

1 60933U 24155K 25305.12650203 .00004803 00000-0 44433-4 0 9999
2 60933 53.1597 254.7587 0001243 105.4375 254.6780 15.69736345 68214
Epoch: Nov 1, 2025 • Age: 39 hours

現在のステータス

高度 364.6 km
速度 7.70 km/s
衛星直下点 50.05°N, 56.41°E
打ち上げ日 Aug 31, 2024
運用期間 1.1 years
タイプ internet

技術仕様

分類 Payload
質量 960.00 kg
乾燥質量 910.00 kg
総質量 960.00 kg
長さ 0.30 m
直径 4.10 m
スパン 29.00 m
形状 Box + pan
製造者 SPXS
バスタイプ Starlink V2MD
フェーズステータス In Orbit
所有者/国 SPXS/US

大規模コンステレーション

Loading constellations...